Regional Weather Roundup
Issued by NWS

Home | Current Version | Previous Version | Text Only | Print | Product List | Glossary On
Versions: 1 2 3 4 5 6 7 8 9 10 11 12 13 14 15 16 17 18 19 20 21 22 23 24 25 26 27 28 29 30 31 32 33 34 35 36 37 38 39 40 41 42 43 44 45 46 47 48 49 50
000
ASUS45 KREV 280210
RWRNV
NEVADA REGIONAL WEATHER ROUNDUP
NATIONAL WEATHER SERVICE RENO NV
700 PM PDT THU AUG 27 2015

NOTE: "FAIR" INDICATES FEW OR NO CLOUDS BELOW 12,000 FEET WITH NO
SIGNIFICANT WEATHER AND/OR OBSTRUCTIONS TO VISIBILITY.

NVZ001-003-004-280300-
WESTERN NEVADA

CITY           SKY/WX    TMP DP  RH WIND       PRES   REMARKS
RENO           MOCLDY    86  38  18 W16G28    30.13S
CARSON CITY    FAIR      82  37  20 W16G24    30.16S
MINDEN         FAIR      81  37  21 W9G22     30.17R
SLIDE MTN        N/A     61  37  41 W15         N/A
PYRAMID LAKE     N/A     90 N/A N/A W5          N/A
FALLON         MOCLDY    89  35  14 CALM      30.06F
LOVELOCK       PTCLDY    89  36  15 S8        30.07F
HAWTHORNE      CLEAR     90  32  12 CALM      30.08F
$$

NVZ002-CAZ072-073-280300-
NORTHERN AND CENTRAL SIERRA

CITY           SKY/WX    TMP DP  RH WIND       PRES   REMARKS
S. LAKE TAHOE  CLEAR     75  37  25 VRB3      30.30F
TRUCKEE        PTCLDY    73  39  29 W10       30.29S
SQUAW VLY 8000   N/A     63  36  36 SW8         N/A
SUSANVILLE     CLEAR     82  36  18 SW10      30.14F
BLUE CANYON    PTCLDY    75  41  29 SW3       30.27F
MAMMOTH LAKES  FAIR      73  32  21 SW17      30.33F
BRIDGEPORT     FAIR      73  32  22 W8        30.30S
$$

NVZ030-031-036-280300-
NORTHERN NEVADA

CITY           SKY/WX    TMP DP  RH WIND       PRES   REMARKS
ELKO           CLEAR     85  31  14 W5        30.16S
WINNEMUCCA     CLEAR     85  33  15 W7        30.10F
WENDOVER       CLEAR     84  37  18 SW3       30.13R
$$

NVZ035-037-280300-
CENTRAL NEVADA

CITY           SKY/WX    TMP DP  RH WIND       PRES   REMARKS
ELY            PTCLDY    75  40  28 SW6       30.28F
EUREKA           N/A     82  29  14 N3        30.23F
$$

NVZ013-014-280300-
SOUTH CENTRAL NEVADA

CITY           SKY/WX    TMP DP  RH WIND       PRES   REMARKS
TONOPAH        PTCLDY    85  38  18 CALM      30.17F
$$

NVZ017-020-022-280300-
SOUTHERN NEVADA

CITY           SKY/WX    TMP DP  RH WIND       PRES   REMARKS
LAS VEGAS      PTCLDY    98  50  19 E3        29.90S
N. LAS VEGAS   CLEAR     97  48  18 E5        29.93S
NELLIS AFB     CLEAR     98  51  20 CALM      29.90F
HENDERSON      CLEAR     96  54  24 NE6       29.97F
MERCURY        PTCLDY    94  46  19 S9        30.00S
$$


USA.gov is the U.S. government's official web portal to all federal, state and local government web resources and services.